Regional Weather Roundup
Issued by NWS

Home | Current Version | Previous Version | Graphics & Text | Print | Product List | Glossary On
Versions: 1 2 3 4 5 6 7 8 9 10 11 12 13 14 15 16 17 18 19 20 21 22 23 24 25 26 27 28 29 30 31 32 33 34 35 36 37 38 39 40 41 42 43 44 45 46 47 48 49 50
000
ASUS44 KMEG 300910
RWRTN
TENNESSEE HOURLY STATE WEATHER ROUNDUP
NATIONAL WEATHER SERVICE MEMPHIS TN
400 AM CDT TUE SEP 30 2014

TNZ002-004-019-021-049-052-054-088>092-301000-
WEST TENNESSEE

CITY           SKY/WX    TMP DP  RH WIND       PRES   REMARKS
MEMPHIS INTL   CLEAR     66  58  75 CALM      29.92S
NWS MEMPHIS      N/A     62 N/A N/A MISG        N/A
JACKSON        CLEAR     58  56  93 CALM      29.93S
DYERSBURG      CLEAR     61  48  63 CALM      29.95S
UNION CITY       N/A     55  55 100 CALM      29.93S VSB 1/4
PARIS          CLEAR     54  52  94 CALM      29.95S
HUNTINGDON     CLEAR     56  55  96 CALM      29.94S
LEXINGTON      CLEAR     57  57 100 CALM      29.93S
SAVANNAH       CLEAR     57  57 100 CALM      29.94R
$$

TNZ008-025-027-028-033-062-065-066-301000-
NORTH MIDDLE TENNESSEE

CITY           SKY/WX    TMP DP  RH WIND       PRES   REMARKS
NASHVILLE      CLEAR     61  59  93 S3        29.94S
DICKSON        CLEAR     61  55  82 CALM      29.94S
PORTLAND       CLEAR     55  55 100 CALM      29.94S
CLARKSVILLE    CLEAR     57  55  93 W3        29.93F FOG
LEBANON        CLEAR     57  56  97 CALM      29.93S
SMYRNA         CLEAR     59  57  94 CALM      29.95S FOG
MURFREESBORO   CLEAR     61  58  90 CALM      29.94S
COOKEVILLE       N/A     54  54 100 CALM      29.95S VSB 3/4
GALLATIN       CLEAR     58  58 100 CALM      29.95S
CROSSVILLE     CLEAR     59  54  83 CALM      29.99S
$$

TNZ061-075-076-078-094-096-097-301000-
SOUTH MIDDLE TENNESSEE

CITY           SKY/WX    TMP DP  RH WIND       PRES   REMARKS
LEWISBURG      CLEAR     55  54  97 CALM      29.94S
FAYETTEVILLE   CLEAR     59  57  94 CALM      29.95S
TULLAHOMA      CLEAR     55  54  94 CALM      29.97S
WINCHESTER     PTCLDY    55  55 100 CALM      29.97R
MCMINNVILLE    MOCLDY    57  57 100 CALM      29.96S
COLUMBIA       CLEAR    N/A N/A N/A CALM      29.93S
SHELBYVILLE    CLEAR     57  57 100 E3        29.96S
$$

TNZ017-018-042-046-047-301000-
NORTHEAST TENNESSEE

CITY           SKY/WX    TMP DP  RH WIND       PRES   REMARKS
TRI CITIES     CLOUDY    55  53  93 CALM      29.98R FOG
ELIZABETHTON   SUNNY     55  55 100 CALM      29.98S
$$

TNZ012-013-036-069-073-074-301000-
CENTRAL EAST TENNESSEE

CITY           SKY/WX    TMP DP  RH WIND       PRES   REMARKS
KNOXVILLE      CLEAR     61  59  93 CALM      29.95R
OAK RIDGE      FOG       61  61 100 CALM      29.97R VSB 1/2
GATLINBURG     SUNNY     55  54  94 CALM      29.96R
$$

TNZ083-085-099-301000-
SOUTHEAST TENNESSEE

CITY           SKY/WX    TMP DP  RH WIND       PRES   REMARKS
CHATTANOOGA    PTCLDY    62  59  90 CALM      29.96R
$$

SKY/WX REPORTED AS FAIR MEANS FEW OR NO CLOUDS BELOW
12 THOUSAND FEET.



USA.gov is the U.S. government's official web portal to all federal, state and local government web resources and services.